GFSNGP_sfc_temp_132.txt.gz
Temp
51 58 59 59 60 59 54 51 52 51 52 58 60 60 60 63 61 61 61 60 59 59 59 59 59 60 60 60 60 59 59 59 60 61 62 62 62 63 64 64 64 65 65 64
48 57 59 58 60 61 58 56 54 54 54 60 60 59 60 62 62 61 61 61 61 61 61 60 60 60 59 59 58 59 58 58 60 61 62 62 63 63 63 64 65 65 64 64
45 52 54 50 57 58 58 59 59 53 59 59 58 59 61 60 62 62 61 61 61 61 60 60 59 59 57 58 58 58 57 58 60 61 61 62 63 63 63 63 63 63 63 63
43 45 39 54 59 63 62 62 60 59 60 59 60 59 60 61 62 61 62 62 61 61 60 60 60 59 58 58 57 57 57 58 59 60 60 62 62 62 63 62 62 61 63 63
44 41 48 56 60 60 58 57 63 61 61 59 59 61 60 63 63 64 63 63 63 62 61 60 59 59 57 57 56 56 57 57 59 60 60 61 61 62 62 61 60 63 63 64
41 42 42 52 62 65 62 49 63 62 58 57 59 53 57 62 64 64 64 63 62 62 61 59 58 58 56 56 55 56 57 58 59 61 61 61 61 62 61 61 59 62 63 63
41 42 47 56 60 62 49 52 60 61 59 57 58 59 61 63 63 64 63 63 62 61 59 58 58 57 56 56 56 57 57 59 61 61 61 61 62 62 62 61 59 60 59 60
40 39 42 59 59 53 54 54 59 60 59 61 61 63 62 63 63 63 64 62 61 59 58 58 58 57 57 56 58 58 59 59 60 60 61 62 60 59 59 60 59 57 58 58
47 45 54 56 57 59 56 56 59 59 60 60 60 61 62 61 62 62 62 62 61 59 58 58 58 58 57 58 59 59 59 59 61 61 61 61 59 58 58 58 58 57 56 56
48 52 54 57 58 59 59 59 62 63 64 62 63 62 62 61 61 61 61 61 60 58 57 57 58 58 57 59 59 59 58 59 59 60 60 59 61 60 57 56 56 57 55 54
47 52 54 56 58 58 60 62 62 62 64 64 62 61 60 60 61 61 60 60 59 58 57 57 59 58 59 60 60 59 59 58 60 62 59 59 59 58 59 54 50 53 55 56
45 51 51 52 57 59 60 60 61 60 61 63 63 61 61 59 59 60 59 58 57 57 57 58 58 58 59 61 59 59 59 60 61 60 61 59 60 60 50 47 44 42 42 47
52 53 53 57 58 59 59 60 62 61 61 61 65 62 61 59 59 57 58 58 58 58 58 59 58 58 60 61 60 59 59 60 61 59 61 60 61 60 60 55 45 43 43 43
52 51 52 55 54 59 59 60 60 61 61 61 62 62 61 58 58 57 58 60 60 59 58 58 58 59 61 61 61 60 60 56 60 60 61 61 61 61 60 60 61 59 51 47
54 56 56 58 55 56 58 58 57 57 58 60 60 59 59 59 58 59 60 60 59 59 59 58 59 60 61 61 61 61 61 62 62 61 62 61 62 60 61 60 59 58 60 55
55 55 54 52 54 54 56 57 56 56 57 58 57 58 59 60 59 59 58 59 57 56 58 58 59 61 61 62 62 61 63 58 59 62 63 62 61 60 59 58 58 59 57 57
48 48 50 49 53 54 54 57 56 56 56 56 58 58 58 58 57 57 57 58 58 58 58 58 59 61 61 61 61 60 62 62 59 60 59 60 60 59 60 60 58 57 55 53
50 52 54 53 54 53 54 57 57 56 56 57 57 57 57 56 56 55 55 57 56 57 58 59 59 60 60 60 60 60 60 59 58 58 59 58 58 59 59 59 58 57 57 56
54 53 53 54 54 55 55 55 56 56 57 57 56 56 55 55 55 56 56 56 55 55 56 57 60 59 58 60 59 59 58 58 57 57 58 56 57 56 57 56 56 56 56 56
54 55 56 56 57 56 54 56 56 56 57 58 57 55 54 55 55 55 56 54 55 56 56 56 56 56 59 59 59 58 57 57 57 57 57 56 56 55 55 50 53 53 54 54
53 54 55 54 54 57 57 57 55 55 56 56 55 54 54 55 56 54 52 50 49 54 56 55 57 57 57 56 57 57 56 55 54 53 54 53 53 52 52 52 52 52 52 52
55 53 53 54 54 54 56 57 57 57 57 56 56 56 54 52 50 49 50 47 49 53 55 55 57 56 56 56 56 55 54 53 52 53 52 52 52 51 50 51 51 51 50 50
53 54 54 53 53 54 54 54 53 56 56 56 54 53 51 49 47 46 44 51 53 53 54 55 54 54 54 54 54 54 53 52 51 51 50 50 50 51 51 50 50 50 50 50
54 52 50 52 54 53 52 53 51 51 51 51 50 50 49 47 46 48 48 49 49 51 53 54 53 52 52 54 53 52 51 50 49 49 49 45 50 50 50 50 49 49 49 47
53 53 53 53 52 50 53 54 54 52 51 50 48 48 50 48 49 52 53 52 50 52 52 50 50 50 52 52 52 51 50 50 50 51 50 50 49 48 48 48 48 47 47 47
51 52 52 53 52 53 54 54 52 52 53 51 51 52 51 53 54 54 53 52 52 50 52 52 52 52 52 52 52 51 51 50 50 51 50 50 49 48 48 47 47 46 45 45
50 48 52 50 52 53 54 54 53 52 53 54 52 53 54 54 52 51 50 52 51 51 51 51 52 50 51 51 51 51 51 51 48 51 50 50 49 48 48 47 46 45 45 44

GFSNGP_sfc_temp_138.txt.gz
Temp
85 86 86 85 83 84 80 82 77 81 81 84 84 85 87 88 86 85 84 84 84 82 81 81 81 81 81 81 80 80 77 77 76 76 77 77 77 78 78 78 78 78 76 75
79 81 83 80 84 85 83 84 83 83 80 88 88 88 85 86 86 84 83 83 83 82 81 80 81 81 81 80 79 79 77 76 77 76 76 76 77 77 77 77 77 76 75 74
73 78 77 72 80 82 83 85 83 76 83 87 84 84 85 86 87 86 86 85 83 82 81 81 82 82 81 80 79 77 76 76 76 76 75 75 76 76 76 75 73 73 73 73
75 73 61 79 85 87 83 83 84 83 83 83 84 85 87 87 85 85 87 86 83 83 83 83 84 81 81 80 78 78 76 76 76 76 75 75 75 75 74 73 72 73 72 72
70 70 76 75 75 78 77 77 84 83 83 84 84 84 86 92 87 84 86 85 84 85 84 84 83 82 79 78 78 77 76 76 76 76 74 74 74 73 72 73 73 74 73 70
72 65 63 78 78 81 81 70 78 79 80 81 82 76 84 84 84 83 84 85 84 86 86 84 82 81 79 78 78 76 76 76 76 75 74 74 73 72 68 73 73 76 73 67
71 67 74 77 78 81 66 69 77 78 78 78 77 82 83 84 83 84 84 84 86 86 85 83 82 81 78 78 76 76 77 76 76 76 74 75 73 72 72 74 73 72 72 64
71 66 62 79 76 71 74 76 77 77 77 76 78 80 81 83 84 83 83 84 86 84 83 83 81 79 77 76 78 77 77 76 76 76 77 77 73 74 72 74 72 72 73 64
72 73 73 78 75 76 78 76 76 76 78 78 78 79 81 81 83 83 84 85 85 84 82 81 79 79 76 76 76 76 75 75 75 76 77 76 74 73 76 75 75 74 74 65
70 71 72 75 77 78 78 78 78 79 79 80 78 80 79 81 82 83 83 83 84 83 81 79 78 77 77 77 76 75 75 75 75 75 75 76 79 79 77 77 72 74 73 67
71 72 73 74 77 77 76 77 77 79 79 80 80 78 79 78 78 81 81 82 83 81 80 79 79 77 78 78 77 75 75 76 77 80 79 79 79 79 78 69 64 69 67 63
71 75 73 74 77 77 74 75 77 77 77 79 79 77 78 77 78 78 79 82 80 80 80 81 79 78 77 78 77 75 76 78 80 81 82 83 81 81 51 51 46 44 43 47
74 76 74 76 75 76 74 75 77 77 77 75 77 77 77 76 77 75 77 78 79 79 76 70 67 67 78 77 77 75 75 77 80 76 82 81 80 78 77 59 47 45 43 43
74 73 70 73 72 77 75 76 74 77 77 76 77 78 77 76 76 76 76 77 72 73 69 68 72 75 77 78 76 76 76 62 78 80 82 84 73 72 78 78 70 69 50 54
72 74 73 75 74 73 75 76 73 73 75 76 78 77 77 75 74 75 77 79 78 78 76 76 76 77 79 79 76 77 79 81 83 84 84 78 79 76 80 75 73 66 63 64
71 72 72 70 70 71 72 72 72 73 75 76 76 76 76 75 75 75 77 76 73 65 68 73 76 78 78 78 77 79 79 67 67 82 76 78 82 82 76 73 73 72 72 72
65 66 68 68 69 70 70 72 72 73 74 75 75 75 75 75 74 73 74 75 72 72 73 75 76 78 78 78 78 81 81 81 69 81 83 80 82 77 75 75 71 70 68 65
69 69 70 70 69 69 70 71 72 73 73 74 74 73 73 73 71 70 72 70 69 61 66 75 76 75 69 66 67 70 75 80 80 81 79 78 78 77 75 73 73 74 72 68
69 68 69 70 71 70 70 71 71 72 72 73 73 72 72 71 71 72 73 70 67 68 67 68 59 63 61 59 59 57 61 66 65 67 75 66 75 76 76 76 74 74 73 72
67 67 67 67 68 68 68 69 67 70 72 72 72 71 69 70 71 69 68 57 56 57 63 62 65 62 63 58 55 55 56 59 70 74 74 75 74 73 71 62 72 72 72 71
65 65 65 64 65 64 63 63 62 68 70 71 70 69 69 70 70 67 62 65 62 61 59 61 60 56 57 56 54 57 64 66 71 73 74 73 73 73 73 73 72 71 71 69
63 63 62 61 59 59 60 63 61 62 63 64 68 66 63 63 63 63 63 63 61 51 58 54 59 59 61 60 67 72 72 71 72 72 71 70 69 70 70 70 69 68 68 68
65 64 63 59 58 57 57 55 54 55 56 56 56 59 63 68 68 65 55 55 55 52 57 56 55 56 58 73 74 73 72 71 70 70 69 69 69 69 68 66 67 67 66 66
63 64 61 61 62 57 52 54 52 51 51 52 56 60 63 62 55 52 54 50 50 56 59 62 60 56 60 74 73 72 71 70 69 68 67 57 69 68 66 65 66 65 64 62
64 60 59 62 56 59 56 58 56 54 55 51 50 51 54 54 52 53 55 57 54 60 65 51 54 57 72 72 71 70 70 70 70 69 68 68 68 68 66 66 64 64 65 64
61 56 58 65 59 58 67 68 65 61 65 63 64 64 65 65 63 62 61 59 67 61 69 69 71 72 71 71 70 70 69 67 69 70 68 68 67 67 66 66 65 65 64 64
63 58 64 67 66 68 62 62 64 59 61 68 66 68 69 70 68 68 62 69 70 70 70 70 71 68 72 71 70 70 70 70 60 70 69 68 68 67 66 66 66 65 66 63

GFSNGP_sfc_temp_141.txt.gz
Temp
87 90 91 88 86 88 85 85 79 84 85 89 88 90 91 93 92 91 91 92 93 93 89 88 88 87 86 86 85 84 82 80 80 80 80 80 79 80 80 78 80 79 78 77
83 89 89 85 89 89 88 88 87 87 85 94 93 92 90 90 90 90 89 91 91 92 88 86 86 84 84 83 83 83 81 80 81 79 79 78 79 79 79 79 78 77 76 76
74 85 85 77 84 87 88 90 89 81 88 94 89 88 88 89 91 90 91 92 91 89 88 85 85 84 83 83 83 80 80 80 79 79 78 77 78 77 77 76 77 75 76 77
77 80 67 84 93 91 89 89 91 89 89 88 88 90 91 92 90 90 91 91 92 91 89 86 86 85 85 85 82 81 79 79 79 79 78 77 77 77 76 76 75 75 75 76
73 74 80 83 83 85 84 83 91 88 88 89 89 89 88 92 91 90 90 90 91 92 89 87 86 85 84 82 82 80 80 79 79 79 77 77 76 75 75 74 73 74 76 75
77 70 66 82 88 92 89 75 88 88 87 88 88 78 84 86 89 89 88 90 89 90 89 87 86 85 82 81 81 80 80 80 80 78 77 76 75 75 74 74 75 77 75 74
74 72 78 86 86 90 70 74 85 86 85 84 81 84 84 88 87 89 88 88 90 89 88 86 86 84 81 81 80 81 81 80 79 78 77 77 76 76 75 74 75 74 75 73
75 70 67 86 84 77 78 82 84 84 82 81 82 84 85 87 86 87 87 89 88 87 86 87 85 83 80 80 82 81 80 79 78 78 79 80 77 75 75 73 72 72 75 73
75 77 81 87 81 83 86 82 82 82 83 83 82 83 84 84 85 86 88 87 88 88 86 86 84 82 79 80 80 79 78 77 78 78 78 78 76 75 77 71 73 76 75 72
76 76 78 80 83 84 86 84 84 84 84 84 82 83 82 82 82 83 85 87 88 87 85 83 83 82 82 81 79 78 76 76 77 76 76 78 80 82 80 79 77 75 73 69
76 77 78 79 82 82 82 82 82 84 83 82 82 82 82 81 80 81 81 84 86 85 84 84 83 81 82 81 79 77 77 78 78 80 79 81 80 81 81 70 68 71 67 68
74 79 78 78 81 82 79 79 81 80 80 82 82 80 81 80 81 80 80 81 81 83 83 84 77 78 75 66 69 67 70 80 81 83 84 82 83 69 51 53 47 46 45 52
76 81 80 80 81 81 79 79 81 81 81 79 81 80 80 79 79 76 79 80 80 81 77 77 70 69 70 66 67 67 69 77 79 77 82 75 82 76 60 55 47 45 48 46
79 77 74 77 77 81 80 80 77 80 81 80 80 80 79 79 79 78 77 79 81 82 78 72 71 73 69 70 71 70 72 64 79 81 83 79 81 80 80 59 72 70 55 53
77 79 78 79 79 78 79 79 78 77 79 79 80 79 79 78 77 77 78 79 80 80 73 76 74 72 79 77 74 74 75 80 76 78 81 74 83 81 71 78 75 73 72 56
76 76 77 75 75 76 77 76 76 76 78 78 78 79 79 79 78 77 79 79 77 74 74 74 74 67 75 77 78 80 80 71 71 82 68 82 74 76 64 77 73 73 73 72
71 70 73 72 73 74 75 77 76 76 77 77 78 79 79 78 77 76 77 79 77 75 76 70 63 59 60 77 78 81 82 64 64 83 75 79 76 69 76 69 74 71 70 68
75 74 75 74 73 73 74 75 75 76 76 77 77 78 76 75 74 75 75 76 74 73 73 73 67 64 67 72 71 68 70 67 60 60 66 61 68 73 68 72 76 68 71 69
74 73 73 74 74 74 75 74 75 76 76 76 76 75 75 76 75 74 77 74 71 70 68 69 64 71 70 64 68 71 69 70 67 64 68 64 71 74 70 69 69 75 75 74
73 73 71 70 70 68 68 71 72 71 73 72 75 75 74 75 74 72 69 65 64 61 66 70 70 67 65 63 60 61 60 59 60 59 59 61 68 75 74 64 74 75 75 74
71 69 66 65 64 65 64 65 66 68 68 73 73 71 71 73 71 70 70 68 64 64 64 63 69 65 65 64 61 57 58 58 58 57 62 72 76 75 76 76 75 74 74 72
69 67 66 63 63 62 62 62 63 64 64 69 70 71 70 67 66 66 68 67 67 55 64 69 71 62 64 61 67 64 63 64 68 73 73 74 73 74 72 71 70 72 71 71
65 65 66 64 61 58 59 57 59 60 60 61 63 64 65 67 70 68 66 63 67 56 54 55 54 56 57 70 73 75 74 73 73 74 73 73 73 73 72 71 71 70 69 69
65 65 63 62 61 61 57 58 57 52 51 53 57 60 65 67 67 68 66 55 51 58 64 63 62 56 55 77 77 75 75 74 75 73 71 59 73 71 69 69 68 68 68 65
65 63 62 62 63 59 63 64 63 55 52 54 55 59 59 61 61 62 66 61 53 60 65 55 58 60 76 76 75 74 73 74 73 73 72 72 72 71 70 69 68 68 67 67
59 62 65 60 60 68 66 68 66 66 65 63 64 64 64 61 59 61 61 59 66 62 71 72 74 75 75 74 74 74 73 71 71 73 71 72 71 71 70 69 68 68 67 66
66 60 69 69 72 72 74 69 70 70 70 71 70 71 72 72 70 70 64 71 72 73 73 72 74 71 76 75 74 73 74 73 60 73 72 71 70 70 69 69 69 70 69 66

GFSNGP_sfc_temp_147.txt.gz
Temp
73 78 80 79 79 78 69 66 64 69 69 72 74 74 77 78 79 80 79 81 79 76 74 76 74 75 77 76 75 73 69 68 68 69 69 69 68 68 68 68 68 68 66 66
66 80 80 78 83 81 80 78 72 74 73 79 82 77 77 77 78 78 79 81 81 77 76 75 75 74 75 73 72 73 68 66 68 69 69 70 70 69 67 67 68 66 66 65
60 72 73 68 73 79 79 80 76 67 72 79 75 76 74 75 78 77 78 78 77 75 75 74 74 74 72 71 73 70 67 69 68 68 70 69 70 68 66 66 66 65 64 64
58 61 53 69 80 84 82 84 78 78 77 75 74 73 75 76 77 79 77 77 76 74 74 73 75 75 74 74 72 71 70 70 68 70 69 68 68 68 66 66 65 64 63 63
55 56 62 73 78 77 77 72 80 76 76 78 76 76 71 77 76 75 75 75 75 75 75 74 73 72 73 72 71 70 72 69 70 70 67 68 67 65 65 64 64 63 63 63
57 53 55 66 79 86 80 62 79 80 78 77 75 60 64 74 76 76 77 76 75 77 76 73 72 72 71 69 70 69 69 69 70 69 69 68 66 65 65 65 64 64 64 63
56 56 63 74 82 84 63 61 74 75 73 69 64 66 70 75 74 76 76 75 77 75 74 72 72 72 69 70 69 67 67 69 69 67 69 69 66 66 65 64 64 63 62 61
58 56 53 75 77 68 65 68 73 73 74 72 72 71 71 72 71 71 72 73 75 74 74 72 71 71 66 65 66 67 67 68 67 67 70 69 66 66 64 63 63 62 61 59
63 60 67 74 72 71 73 69 69 70 71 72 70 69 70 68 69 70 70 70 71 72 72 71 73 73 67 67 67 67 67 68 68 68 68 69 66 66 63 63 61 61 59 57
61 64 67 72 75 74 75 73 74 73 72 72 69 70 68 68 68 68 68 69 69 69 69 68 70 68 68 69 68 65 63 62 62 62 62 65 65 64 62 62 60 60 58 55
61 65 68 70 72 73 74 75 75 75 74 72 70 69 68 66 66 66 67 67 66 65 65 66 69 66 65 64 63 61 61 60 60 60 62 63 67 60 61 58 62 59 56 54
51 58 66 66 69 74 71 71 71 71 70 71 70 68 68 66 66 65 65 66 65 65 64 65 65 61 62 63 62 59 58 58 59 59 62 60 61 54 50 49 50 47 46 56
62 67 70 72 72 74 70 71 72 70 69 68 68 69 66 65 66 65 66 66 65 64 65 64 62 59 60 59 61 60 58 58 59 58 58 58 59 56 54 54 48 46 46 44
69 69 66 70 67 72 73 73 72 72 70 69 68 69 67 66 65 66 65 66 66 66 65 65 64 60 61 61 60 59 58 58 59 61 61 59 61 56 56 54 55 55 49 48
70 71 68 68 69 70 71 72 68 68 68 68 69 68 67 65 64 65 66 68 68 66 65 65 65 64 64 63 62 61 59 61 61 60 59 59 60 61 59 57 58 58 57 52
68 69 70 69 68 69 68 68 65 66 68 67 66 67 67 68 67 67 67 67 64 62 64 66 64 60 62 60 58 58 59 60 60 60 59 58 59 58 59 58 58 58 59 60
63 62 65 64 65 66 66 68 67 67 68 67 66 67 67 67 65 65 65 66 65 64 64 63 60 63 62 60 58 58 59 59 59 60 59 57 58 55 55 57 58 59 61 60
66 67 66 65 65 64 65 67 66 65 64 67 68 66 66 64 62 63 64 66 64 62 62 62 62 60 58 57 56 55 56 59 59 59 60 57 56 57 57 57 58 59 59 56
70 68 68 68 66 65 65 64 64 64 65 65 66 63 63 64 66 62 64 62 60 59 60 61 62 60 58 59 58 56 57 59 59 57 57 56 58 58 58 59 59 61 61 57
69 67 66 67 66 64 62 63 63 63 63 63 62 62 62 62 64 61 60 57 58 60 59 61 63 60 59 59 62 59 61 61 59 59 60 59 58 58 59 57 62 60 58 57
66 67 65 64 61 62 62 63 61 59 60 62 60 60 60 60 61 61 58 55 57 59 61 63 61 59 58 59 59 58 57 56 58 58 57 58 60 60 61 61 61 58 57 56
63 63 63 61 60 58 60 60 57 58 59 59 60 61 59 58 58 58 59 57 56 55 60 62 59 58 60 59 60 58 57 59 60 59 59 60 60 61 60 60 56 56 55 54
61 62 61 59 59 57 58 55 54 55 56 58 56 57 56 55 57 57 54 57 57 54 58 55 56 58 59 59 58 59 59 60 61 63 62 63 61 57 55 54 54 53 52 52
60 59 59 60 60 59 54 55 53 54 54 55 56 56 59 58 57 59 55 53 53 55 57 58 58 57 57 57 58 60 59 60 59 58 57 54 56 55 54 53 53 52 51 51
61 60 58 58 58 56 55 54 54 53 55 55 56 56 56 59 56 55 56 55 54 57 60 57 58 57 59 59 61 59 58 57 58 58 57 56 56 55 53 53 53 52 51 51
59 59 59 60 59 61 61 59 55 54 53 53 54 56 57 57 58 58 58 58 59 57 60 62 62 60 60 61 61 60 59 58 58 58 57 56 55 54 54 53 53 53 52 52
60 56 60 59 60 60 61 61 60 59 58 58 57 57 57 58 58 58 57 58 58 58 58 59 59 59 60 60 60 59 58 57 55 57 57 56 55 55 55 54 54 53 53 52